Simultaneous Nadir Overpasses (SNOs) Predictions

Prediction of SNOs between AQUA and NOAA-19 Satellite Orbit:

Table of predicted SNOs for the next 14.0 days since TLE Epoch: 4/10/2021
Index Date (AQUA) Time (AQUA) Lat,Lon (AQUA) SZA (AQUA ) Date (NOAA-19) Time (NOAA-19) Lat,Lon (NOAA-19) SZA (NOAA-19 ) Distance(km) Time Diff (sec)
1 04/12/2021 02:09:09 -78.98, -55.86 108.83 04/12/2021 02:08:22 -78.99, -55.70 108.82 3.30 47
2 04/12/2021 02:58:37 79.01, 111.61 71.21 04/12/2021 02:59:18 78.99, 111.58 71.17 2.76 41
3 04/14/2021 08:32:19 -78.98,-151.66 109.65 04/14/2021 08:32:33 -79.00,-151.55 109.65 2.79 14
4 04/16/2021 14:06:03 78.99, -55.11 69.55 04/16/2021 14:05:42 78.96, -55.04 69.53 3.12 21
5 04/16/2021 14:55:30 -79.03, 112.28 110.41 04/16/2021 14:56:42 -79.07, 113.10 110.45 17.97 72
6 04/18/2021 19:39:45 -78.96, 41.63 111.28 04/18/2021 19:38:57 -78.94, 41.57 111.27 2.46 48
7 04/18/2021 20:29:12 78.96,-150.73 68.71 04/18/2021 20:29:53 78.99,-150.81 68.73 3.51 41
8 04/21/2021 02:02:55 -78.97, -54.23 112.05 04/21/2021 02:03:07 -78.98, -54.09 112.05 3.11 12
9 04/23/2021 07:36:38 78.95, 42.44 67.18 04/23/2021 07:36:17 78.95, 42.50 67.18 1.28 21



Historial Predications of SNOs between AQUA and NOAA-19
